Weather History for West Palm Beach, FL

Change the Weather History Date:

Saturday, March 2, 2013

  Actual Average Record
Temperature  
Mean Temperature 59 °F 69 °F  
Max Temperature 68 °F 78 °F 92 °F (2003)
Min Temperature 50 °F 61 °F 26 °F (1920)
Degree Days  
Heating Degree Days 6 1  
Month to date heating degree days 10 2  
Since 1 July heating degree days 93 207  
Cooling Degree Days 0 5  
Month to date cooling degree days 0 10  
Year to date cooling degree days 381 245  
Growing Degree Days 9 (Base 50)    
Moisture  
Dew Point 38 °F    
Average Humidity 49    
Maximum Humidity 67    
Minimum Humidity 31    
Precipitation  
Precipitation 0.00 in 0.12 in 3.83 in (1947)
Month to date precipitation T 0.24  
Year to date precipitation 3.19 6.19  
Snow  
Snow 0.00 in - - ()
Month to date snowfall 0.0  
Since 1 July snowfall 0.0  
Snow Depth 0.00 in    
Sea Level Pressure  
Sea Level Pressure 29.99 in    
Wind  
Wind Speed 12 mph (NW)    
Max Wind Speed 25 mph    
Max Gust Speed 32 mph    
Visibility 10 miles    
Events      
T = Trace of Precipitation, MM = Missing Value Source: NWS Daily Summary

Daily Weather History Graph

Daily Weather History Graph

Search for Another Location

Airport:

Trip Planner

Search our weather history database for the weather conditions in past years. The results will help you decide how hot, cold, wet, or windy it might be!

Date:

Astronomy

Mar. 02, 2013 Rise Set
Actual Time 6:42 AM EST 6:22 PM EST
Civil Twilight 6:19 AM EST 6:45 PM EST
Nautical Twilight 5:52 AM EST 7:12 PM EST
Astronomical Twilight 5:25 AM EST 7:39 PM EST
Moon 11:24 PM EST (3/2) 9:42 AM EST (3/2)
Length of Visible Light 12h 25m
Length of Day
11h 39m
Waning Gibbous, 74% of the Moon is Illuminated
Mar 2
Waning Gibbous
Mar 4
Last Quarter
Mar 11
New
Mar 19
First Quarter
Mar 27
Full

Hourly Weather History & Observations

Time (EST) Temp. Dew Point Humidity Pressure Visibility Wind Dir Wind Speed Gust Speed Precip Events Conditions
12:53 AM 57.0 °F 46.0 °F 67% 29.96 in 10.0 mi WNW 9.2 mph - N/A   Overcast
1:53 AM 55.9 °F 42.1 °F 60% 29.97 in 10.0 mi NW 13.8 mph - N/A   Overcast
2:53 AM 55.0 °F 37.0 °F 51% 29.96 in 10.0 mi NW 18.4 mph - N/A   Overcast
3:53 AM 55.0 °F 39.0 °F 55% 29.96 in 10.0 mi NW 11.5 mph 20.7 mph N/A   Overcast
4:53 AM 54.0 °F 41.0 °F 62% 29.97 in 10.0 mi NW 10.4 mph - N/A   Overcast
5:53 AM 54.0 °F 41.0 °F 62% 29.99 in 10.0 mi NW 15.0 mph 23.0 mph N/A   Overcast
6:53 AM 53.1 °F 39.9 °F 61% 30.01 in 10.0 mi NW 16.1 mph - N/A   Overcast
7:53 AM 53.1 °F 37.0 °F 55% 30.02 in 10.0 mi NW 15.0 mph - N/A   Mostly Cloudy
8:53 AM 55.0 °F 30.9 °F 40% 30.02 in 10.0 mi NNW 8.1 mph - N/A   Mostly Cloudy
9:53 AM 57.0 °F 33.1 °F 40% 30.03 in 10.0 mi NNW 5.8 mph - N/A   Mostly Cloudy
10:53 AM 61.0 °F 33.1 °F 35% 30.02 in 10.0 mi NNW 12.7 mph - N/A   Mostly Cloudy
11:53 AM 64.0 °F 34.0 °F 33% 30.00 in 10.0 mi NW 15.0 mph 20.7 mph N/A   Mostly Cloudy
12:53 PM 66.0 °F 37.0 °F 34% 29.97 in 10.0 mi WNW 15.0 mph - N/A   Mostly Cloudy
1:53 PM 66.0 °F 39.0 °F 37% 29.96 in 10.0 mi WNW 21.9 mph 29.9 mph N/A   Mostly Cloudy
2:53 PM 64.0 °F 37.0 °F 37% 29.96 in 10.0 mi WNW 23.0 mph 29.9 mph N/A   Mostly Cloudy
3:53 PM 62.1 °F 37.0 °F 39% 29.97 in 10.0 mi West 13.8 mph 21.9 mph N/A   Mostly Cloudy
4:53 PM 61.0 °F 37.9 °F 42% 29.96 in 10.0 mi WNW 13.8 mph 20.7 mph N/A   Mostly Cloudy
5:53 PM 57.9 °F 37.9 °F 47% 29.98 in 10.0 mi WNW 11.5 mph - N/A   Mostly Cloudy
6:53 PM 55.9 °F 39.0 °F 53% 30.00 in 10.0 mi NW 6.9 mph - N/A   Mostly Cloudy
7:53 PM 55.0 °F 39.0 °F 55% 30.02 in 10.0 mi West 8.1 mph - N/A   Mostly Cloudy
8:53 PM 55.0 °F 39.0 °F 55% 30.03 in 10.0 mi West 4.6 mph - N/A   Mostly Cloudy
9:53 PM 53.1 °F 39.0 °F 59% 30.04 in 10.0 mi West 3.5 mph - N/A   Mostly Cloudy
10:53 PM 50.0 °F 39.9 °F 68% 30.03 in 10.0 mi West 4.6 mph - N/A   Scattered Clouds
11:53 PM 51.1 °F 41.0 °F 68% 30.02 in 10.0 mi NNW 8.1 mph - N/A   Scattered Clouds